FENGYUN 1C DEB

Satellite information

Favourite Embed

Satellite Type and Status

DEBRISIN ORBIT

Key statistics

Satellite FENGYUN 1C DEB at a glance.

Uptime

9715

Days in orbit

Revolutions

≈ 14.5

Per day

Orbit

SSO

Sun Synchronous Orbit

Inclination

99.1

Latest

Satellite identification and parameters

Extended collection of information and parameters for FENGYUN 1C DEB.

Object identification

Identified? True

Debris? True

Object name: FENGYUN 1C DEB

International designator: 1999-025EHN

Object number (NORAD): 37444

Object ID (CCSDS): 37444

Country: PEOPLES REPUBLIC OF CHINA (PRC)

Current information (Y/N): Y

RCS size: SMALL

Orbital parameters

Period: 99.447 minutes

Inclination: 99.0829 deg

SMA: 7110.287 km

Apoapsis: 906.385 km

Periapsis: 557.919 km

RAAN: 64.839 deg

Eccentricy: 0.0245044

Argument of periapsis: 355.8296 deg

Mean anomaly: 4.0849 deg

Mean motion: 14.48011697 rev/day

Mean motion (dot): 0.00004451 rev/day2

B* drag term: 0.00083100309 1/REarth

Two-line elements (TLE)

Creation date: Dec. 10, 2025, 7:58 p.m.

Reference frame: TEME

Reference center: EARTH

Epoch: Dec. 10, 2025, 11:40 a.m. UTC

TLE line 0: 0 FENGYUN 1C DEB

TLE line 1: 1 37444U 99025EHN 25344.48664097 .00004451 00000-0 83100-3 0 9998

TLE line 2: 2 37444 99.0829 64.8390 0245044 355.8296 4.0849 14.48011697651185

Live tracking on map

Real-time ground track for satellite FENGYUN 1C DEB.

In-orbit conjunctions

A list of the most updated potential collisions computed for object FENGYUN 1C DEB.

Target Orbit TCA Probability of collision Miss distance Type
METEOR 1-16 LEO 2025-11-25 06:27:53 0.0003997774 164.0 (m) PAYLOAD
OBJECT Z SSO 2024-11-20 18:32:31 0.0001485379 962.0 (m) UNKNOWN

Associated space launch

Chinese polar orbiting meteorological satellite

FENGYUN 1C DEB was lifted into orbit during the mission ‘Long March 4B | Feng Yun 1C’, on board a Long March 4B space rocket.

The launch took place on May 10, 1999, 1:33 a.m. from Launch Complex 7.

For more information about the launch, click the button.

Launch to space Long March 4B | Feng Yun 1C
Long March 4B | Feng Yun 1C

Agency: N/A

Status: Launch Successful

Launch date: May 10, 1999, 1:33 a.m. UTC

Rocket: Long March 4B

Launch pad: Launch Complex 7

Location: Taiyuan Satellite Launch Center, People's Republic of China

...

Latest news about this satellite

There are no fresh news available about this satellite. Check back as we update our databases every day.


Newsletter sign-up

Weekly statistics, charts and insights to help you stay on top of the space industry.